Météorologie Historique pour Midland Airpark, TX

Change the Weather History Date:

vendredi, Mars 9, 2012

  Actual Average (KMAF) Record (KMAF)
Temperature  
Température moyenne 38 ° F 54 ° F  
Température maximum 42 ° F 68 ° F 85 ° F (1955)
Température minimum 35 ° F 40 ° F 17 ° F (1996)
Degree Days  
Degrés-jours de chauffage 26 11  
Month to date heating degree days 111  
Since 1 July heating degree days 2348  
Cooling Degree Days 0 0  
Month to date cooling degree days 0  
Year to date cooling degree days 2  
Moisture  
Point de rosée 30 ° F    
Average Humidity 75    
Maximum Humidity 87    
Minimum Humidity 58    
Précipitation  
Précipitation 0.02 pouce 0.02 pouce 1.30 pouce (1973)
Month to date precipitation 0.18  
Year to date precipitation 1.45  
Neige  
Neige 0.00 pouce - - ()
Month to date snowfall  
Since 1 July snowfall  
Épaisseur de neige -    
Pression au niveau de la mer  
Pression au niveau de la mer 30.43 pouce    
Vent  
Vitesse du vent 12 mph (NNE)    
Vitesse maximum du vent 18 mph    
Max Gust Speed 26 mph    
Visibilité 10 Miles terrestres    
Evénements Pluie , Orage    
T = Trace of Precipitation, MM = Missing Value Source: NWS Daily Summary

Daily Weather History Graph

Daily Weather History Graph

Search for Another Location

Airport:

Trip Planner

Search our weather history database for the weather conditions in past years. The results will help you decide how hot, cold, wet, or windy it might be!

Date:

Astronomie

Mar. 09, 2012 Lever Coucher
Temps réel 07:05 CST 18:52 CST
Crépuscule civil 06:41 CST 19:16 CST
Crépuscule nautique 06:12 CST 19:45 CST
Crépuscule astronomique 05:44 CST 20:13 CST
Lune 20:43 CST (3/9) 07:34 CST (3/9)
Durée de lumière visible 12h 35m
Longueur du jour
11h 47m
Pleine lune, 97% of the Moon is Illuminated
Mar 9
Pleine lune
Mar 14
Dernier quartier
Mar 22
Nouveau
Mar 30
Premier quartier
avr 6
Pleine lune

Hourly Weather History & Observations

Heure (CST) Température Refroidissement éolien Point de rosée Humidité Pression Visibilité Wind Dir Vitesse du vent Vitesse des rafales Precip Evénements Conditions météo
12:15 AM 37.6 ° F 30.0 ° F 28.8 ° F 70% 30.45 pouce 10.0 mi NNE 11.5 mph 24.2 mph N/A   Couvert
12:35 AM 37.6 ° F 28.8 ° F 28.4 ° F 69% 30.44 pouce 10.0 mi NNE 15.0 mph - N/A Pluie Pluie fine
12:55 AM 37.0 ° F 28.9 ° F 29.1 ° F 73% 30.46 pouce 10.0 mi NNE 12.7 mph 17.3 mph N/A Pluie Pluie fine
1:15 AM 36.7 ° F 29.9 ° F 28.9 ° F 74% 30.47 pouce 10.0 mi NNE 9.2 mph - N/A Pluie Pluie fine
1:35 AM 36.5 ° F 29.2 ° F 29.1 ° F 75% 30.47 pouce 10.0 mi NNE 10.4 mph - N/A Pluie Pluie fine
1:55 AM 36.1 ° F 30.6 ° F 30.0 ° F 78% 30.48 pouce 10.0 mi Nord 6.9 mph - N/A Pluie Pluie
2:15 AM 36.0 ° F 28.5 ° F 31.1 ° F 82% 30.47 pouce 10.0 mi Nord 10.4 mph - N/A   Couvert
2:35 AM 36.0 ° F 28.5 ° F 31.3 ° F 83% 30.45 pouce 7.0 mi Nord 10.4 mph 16.1 mph 0.01 pouce Pluie Pluie fine
2:55 AM 35.6 ° F 27.5 ° F 31.8 ° F 86% 30.44 pouce 10.0 mi Nord 11.5 mph - 0.01 pouce Pluie Pluie fine
3:15 AM 35.6 ° F 26.6 ° F 31.8 ° F 86% 30.44 pouce 10.0 mi Nord 13.8 mph 18.4 mph N/A Pluie Pluie fine
3:55 AM 35.6 ° F 27.1 ° F 32.0 ° F 87% 30.42 pouce 10.0 mi Nord 12.7 mph 20.7 mph 0.01 pouce Orage Couvert
4:15 AM 36.0 ° F 28.5 ° F 32.0 ° F 86% 30.44 pouce 10.0 mi Nord 10.4 mph - N/A   Couvert
4:35 AM 36.3 ° F 28.9 ° F 32.0 ° F 84% 30.44 pouce 10.0 mi Nord 10.4 mph 18.4 mph N/A   Couvert
4:55 AM 36.5 ° F 28.2 ° F 32.2 ° F 84% 30.44 pouce 10.0 mi Nord 12.7 mph - N/A Pluie Pluie fine
5:15 AM 36.3 ° F 27.5 ° F 32.2 ° F 85% 30.44 pouce 10.0 mi Nord 13.8 mph - N/A Pluie Pluie fine
5:35 AM 36.5 ° F 29.2 ° F 32.0 ° F 84% 30.43 pouce 10.0 mi Nord 10.4 mph 24.2 mph N/A   Bruine
5:55 AM 36.7 ° F 28.0 ° F 32.0 ° F 83% 30.43 pouce 10.0 mi Nord 13.8 mph 21.9 mph N/A   Couvert
6:15 AM 36.9 ° F 28.2 ° F 31.6 ° F 81% 30.44 pouce 10.0 mi Nord 13.8 mph 19.6 mph N/A   Couvert
6:35 AM 36.9 ° F 30.1 ° F 31.3 ° F 80% 30.46 pouce 10.0 mi Nord 9.2 mph 12.7 mph N/A   Couvert
6:55 AM 37.0 ° F 29.3 ° F 31.3 ° F 80% 30.45 pouce 10.0 mi Nord 11.5 mph - N/A   Bruine
7:15 AM 36.9 ° F 28.2 ° F 31.6 ° F 81% 30.44 pouce 10.0 mi Nord 13.8 mph 19.6 mph N/A Pluie Pluie fine
7:35 AM 36.9 ° F 28.2 ° F 31.8 ° F 82% 30.46 pouce 10.0 mi Nord 13.8 mph - N/A Pluie Pluie fine
7:55 AM 36.9 ° F 29.6 ° F 31.6 ° F 81% 30.47 pouce 10.0 mi Nord 10.4 mph 18.4 mph N/A   Bruine
8:15 AM 36.9 ° F 28.7 ° F 31.6 ° F 81% 30.47 pouce 10.0 mi Nord 12.7 mph - N/A Pluie Pluie
8:35 AM 36.9 ° F 28.7 ° F 32.0 ° F 83% 30.47 pouce 10.0 mi Nord 12.7 mph 19.6 mph N/A   Couvert
8:55 AM 37.0 ° F 28.5 ° F 31.3 ° F 80% 30.47 pouce 10.0 mi NNE 13.8 mph 19.6 mph N/A   Couvert
9:15 AM 37.4 ° F 28.5 ° F 30.9 ° F 77% 30.47 pouce 10.0 mi NNE 15.0 mph - N/A   Couvert
9:35 AM 37.8 ° F 28.3 ° F 29.7 ° F 73% 30.46 pouce 10.0 mi NNE 17.3 mph 23.0 mph N/A   Couvert
9:55 AM 37.4 ° F 27.8 ° F 28.2 ° F 69% 30.46 pouce 10.0 mi NNE 17.3 mph 21.9 mph N/A Pluie Pluie fine
10:15 AM 37.4 ° F 27.8 ° F 28.0 ° F 69% 30.47 pouce 10.0 mi NNE 17.3 mph 23.0 mph N/A   Couvert
10:35 AM 37.4 ° F 28.9 ° F 28.6 ° F 70% 30.48 pouce 10.0 mi NE 13.8 mph - N/A   Bruine
10:55 AM 37.0 ° F 28.1 ° F 30.0 ° F 76% 30.47 pouce 10.0 mi NE 15.0 mph - N/A Pluie Pluie fine
11:15 AM 37.4 ° F 28.2 ° F 30.6 ° F 76% 30.47 pouce 7.0 mi NNE 16.1 mph 23.0 mph N/A Pluie Pluie fine
11:35 AM 37.4 ° F 27.5 ° F 29.7 ° F 74% 30.47 pouce 10.0 mi NNE 18.4 mph 24.2 mph N/A   Bruine
11:55 AM 37.6 ° F 28.4 ° F 29.8 ° F 74% 30.46 pouce 10.0 mi NNE 16.1 mph 19.6 mph N/A   Bruine
12:15 PM 37.9 ° F 30.0 ° F 30.6 ° F 75% 30.46 pouce 10.0 mi NNE 12.7 mph - N/A   Couvert
12:35 PM 38.1 ° F 30.7 ° F 30.9 ° F 75% 30.45 pouce 10.0 mi NE 11.5 mph - N/A   Couvert
12:55 PM 38.7 ° F 30.5 ° F 30.7 ° F 73% 30.44 pouce 10.0 mi NE 13.8 mph 23.0 mph N/A   Couvert
1:15 PM 39.6 ° F 31.3 ° F 30.6 ° F 70% 30.44 pouce 10.0 mi ENE 15.0 mph 23.0 mph N/A   Couvert
1:35 PM 39.0 ° F 30.6 ° F 29.7 ° F 69% 30.42 pouce 10.0 mi NE 15.0 mph 26.5 mph N/A   Couvert
1:55 PM 38.7 ° F 30.9 ° F 29.8 ° F 71% 30.43 pouce 7.0 mi ENE 12.7 mph - N/A   Couvert
2:15 PM 37.6 ° F 28.1 ° F 30.2 ° F 75% 30.41 pouce 10.0 mi NNE 17.3 mph 23.0 mph N/A   Couvert
2:35 PM 38.1 ° F 29.5 ° F 29.3 ° F 71% 30.41 pouce 10.0 mi NE 15.0 mph 20.7 mph N/A   Couvert
2:55 PM 38.8 ° F 32.1 ° F 28.9 ° F 68% 30.40 pouce 10.0 mi NE 10.4 mph - N/A   Couvert
3:15 PM 39.2 ° F 34.2 ° F 28.9 ° F 67% 30.39 pouce 10.0 mi NNE 6.9 mph - N/A   Couvert
3:35 PM 39.6 ° F 33.5 ° F 29.5 ° F 67% 30.39 pouce 10.0 mi NE 9.2 mph - N/A   Couvert
3:55 PM 39.9 ° F 33.9 ° F 30.2 ° F 68% 30.38 pouce 10.0 mi NE 9.2 mph - N/A   Couvert
4:15 PM 40.8 ° F 36.2 ° F 28.9 ° F 63% 30.37 pouce 10.0 mi NNE 6.9 mph - N/A   Couvert
4:35 PM 41.7 ° F 35.2 ° F 28.2 ° F 59% 30.35 pouce 10.0 mi NE 11.5 mph 17.3 mph N/A   Couvert
4:55 PM 42.1 ° F 35.7 ° F 28.2 ° F 58% 30.35 pouce 10.0 mi NNE 11.5 mph 16.1 mph N/A   Couvert
5:15 PM 42.3 ° F 36.3 ° F 28.2 ° F 58% 30.35 pouce 10.0 mi NNE 10.4 mph 16.1 mph N/A   Couvert
5:35 PM 42.3 ° F 35.5 ° F 28.2 ° F 58% 30.35 pouce 10.0 mi ENE 12.7 mph 18.4 mph N/A   Couvert
5:55 PM 41.5 ° F 35.4 ° F 29.3 ° F 62% 30.35 pouce 10.0 mi ENE 10.4 mph - N/A   Couvert
6:15 PM 41.0 ° F 33.5 ° F 30.0 ° F 65% 30.35 pouce 10.0 mi NNE 13.8 mph 17.3 mph N/A   Couvert
6:35 PM 39.7 ° F 32.7 ° F 31.6 ° F 73% 30.35 pouce 10.0 mi NE 11.5 mph - N/A   Bruine
6:55 PM 39.7 ° F 34.9 ° F 32.0 ° F 74% 30.35 pouce 10.0 mi NE 6.9 mph - N/A   Couvert
7:15 PM 40.1 ° F 35.3 ° F 32.0 ° F 73% 30.35 pouce 10.0 mi NE 6.9 mph - N/A   Couvert
7:35 PM 40.6 ° F 37.5 ° F 32.0 ° F 71% 30.35 pouce 10.0 mi NE 4.6 mph - N/A   Couvert
7:55 PM 41.0 ° F 39.0 ° F 32.2 ° F 71% 30.36 pouce 10.0 mi NE 3.5 mph - N/A   Couvert
8:15 PM 41.0 ° F 38.0 ° F 32.0 ° F 70% 30.36 pouce 10.0 mi ENE 4.6 mph - N/A   Couvert
8:35 PM 41.2 ° F 34.5 ° F 32.0 ° F 70% 30.36 pouce 10.0 mi Est 11.5 mph 16.1 mph N/A   Couvert
8:55 PM 40.8 ° F 34.5 ° F 32.2 ° F 71% 30.37 pouce 10.0 mi ENE 10.4 mph - N/A   Couvert
9:15 PM 39.7 ° F 33.2 ° F 33.6 ° F 79% 30.36 pouce 7.0 mi ENE 10.4 mph - N/A Pluie Pluie
9:35 PM 39.2 ° F 31.2 ° F 34.7 ° F 84% 30.35 pouce 10.0 mi ENE 13.8 mph 17.3 mph N/A   Bruine
9:55 PM 39.4 ° F 31.1 ° F 34.3 ° F 82% 30.35 pouce 10.0 mi ENE 15.0 mph 18.4 mph N/A   Bruine
10:15 PM 39.6 ° F 33.5 ° F 33.4 ° F 79% 30.35 pouce 10.0 mi ENE 9.2 mph - N/A   Couvert
10:35 PM 39.9 ° F 32.5 ° F 32.9 ° F 76% 30.34 pouce 7.0 mi ENE 12.7 mph - N/A   Couvert
10:55 PM 39.4 ° F 31.8 ° F 33.1 ° F 78% 30.34 pouce 7.0 mi ENE 12.7 mph - N/A   Couvert
11:15 PM 39.2 ° F 33.0 ° F 33.8 ° F 81% 30.34 pouce 7.0 mi ENE 9.2 mph - N/A   Bruine
11:35 PM 38.7 ° F 31.4 ° F 34.3 ° F 84% 30.35 pouce 5.0 mi ENE 11.5 mph - N/A Pluie Pluie
11:55 PM 38.1 ° F 32.9 ° F 34.9 ° F 88% 30.34 pouce 5.0 mi Est 6.9 mph - N/A   Couvert